Weather in Yaroslavsky

Russia / Primorsky Krai     44°11′07″N   132°13′30″E
temp.,
°C
wind,
m/s
gust,
m/s
humid.,
%
clouds,
%
prec.,
mm/h
press.,
hPa
HPBL,
m
13 may, thu
thu1301:00+9ssw919874 0.0 1013708
04:00+8ssw91987100 0.0 1012621
07:00+9ssw91788100 0.0 1012527
10:00+13ssw10137650 0.0 1012612
13:00+17sw79644 0.0 1011840
16:00+18ssw895926 0.0 1009680
19:00+14ssw813716 0.0 1010396
22:00+10ssw5117596 0.0 1012277
14 may, fri
fri1401:00+9ssw410810 0.0 1013209
04:00+8ssw38880 0.0 1013147
07:00+9s38860 0.0 1014171
10:00+16ssw566326 0.0 1014375
13:00+21ssw4546100 0.0 1013755
16:00+23ssw6737100 0.0 10101637
19:00+18s71462100 0.0 1010551
22:00+15s71666100 0.0 1011624
15 may, sat
sat1501:00+14ssw51277100 0.3 1011813
04:00+13s102084100 0.5 1008800
07:00+14ssw111982100 0.0 1007600
10:00+17ssw10167121 0.0 1006613
13:00+19ssw81165100 0.0 1006570
16:00+15w3483100 0.5 1008251
19:00+12wsw3692100 3.0 1010394
22:00+11s3590100 5.4 1011167
16 may, sun
sun1601:00+10ssw4792100 0.0 1011236
04:00+10s3593100 0.0 1010112
07:00+11ssw2388100 0.0 1010112
10:00+13ssw4677100 0.0 1010391
13:00+15ssw5663100 0.0 1009638
16:00+15sw3462100 0.0 1008612
19:00+14sw356793 0.0 1006312
22:00+11sw337488 0.0 100634
17 may, mon
mon1701:00+9ssw3374100 0.0 100635
04:00+8s3379100 0.0 100535
07:00+9ssw23802 0.0 100673
10:00+16wsw22595 0.0 1006416
13:00+21n13410 0.0 10061179
16:00+23e13345 0.0 10052289
19:00+21sse355495 0.0 100698
22:00+15ssw465573 0.0 100992